This demonstration page uses our WeatherBlox Daily Observations layout. Learn more.

Left ArrowRight Arrow

Hourly Observations for December 22, 2021

Temp ( °F °C ) Dew Point ( °F °C ) Humidity (%) Winds ( mph kmh ) Pressure ( in mb ) Visibility ( mi km ) Precip ( " mm )
12:51 am 00:51 Clear 40 4.4 25 -3.9 55 55 SE 5 7 30.11 1020 10 16 0.00 0.00
1:51 am 01:51 Clear 37 2.8 24 -4.4 59 59 NNE 6 9 30.11 1020 10 16 0.00 0.00
2:51 am 02:51 Clear 36 2.2 23 -5 59 59 Calm 30.10 1019 10 16 0.00 0.00
3:51 am 03:51 Clear 35 1.7 23 -5 61 61 E 3 6 30.10 1019 10 16 0.00 0.00
4:51 am 04:51 Clear 37 2.8 23 -5 57 57 SE 6 9 30.09 1019 10 16 0.00 0.00
6:51 am 06:51 Clear 32 0 22 -5.6 66 66 Calm 30.14 1021 10 16 0.00 0.00
7:51 am 07:51 Sunny 34 1.1 22 -5.6 61 61 E 5 7 30.15 1021 10 16 0.00 0.00
8:51 am 08:51 Sunny 42 5.6 23 -5 47 47 ESE 5 7 30.16 1021 10 16 0.00 0.00
9:51 am 09:51 Sunny 48 8.9 24 -4.4 39 39 SE 7 11 30.15 1021 10 16 0.00 0.00
10:51 am 10:51 Sunny 56 13.3 26 -3.3 32 32 SE 6 9 30.12 1020 10 16 0.00 0.00
11:51 am 11:51 Sunny 60 15.6 26 -3.3 27 27 SE 6 9 30.09 1019 10 16 0.00 0.00
12:51 pm 12:51 Sunny 64 17.8 25 -3.9 23 23 Calm 30.04 1017 10 16 0.00 0.00
1:51 pm 13:51 Sunny 67 19.4 25 -3.9 20 20 Calm 30.01 1016 10 16 0.00 0.00
2:51 pm 14:51 Sunny 66 18.9 23 -5 19 19 Calm 30.00 1016 10 16 0.00 0.00
3:51 pm 15:51 Sunny 67 19.4 23 -5 19 19 Calm 29.99 1016 10 16 0.00 0.00
4:51 pm 16:51 Sunny 64 17.8 23 -5 21 21 W 3 6 29.99 1016 10 16 0.00 0.00
5:51 pm 17:51 Clear 56 13.3 23 -5 28 28 NNW 6 9 30.01 1016 10 16 0.00 0.00
6:51 pm 18:51 Clear 52 11.1 22 -5.6 31 31 N 7 11 30.03 1017 10 16 0.00 0.00
7:51 pm 19:51 Clear 50 10 20 -6.7 30 30 ESE 5 7 30.04 1017 10 16 0.00 0.00
8:51 pm 20:51 Clear 49 9.4 20 -6.7 32 32 ESE 3 6 30.04 1017 10 16 0.00 0.00
9:51 pm 21:51 Clear 51 10.6 21 -6.1 31 31 ESE 6 9 30.02 1017 10 16 0.00 0.00
10:51 pm 22:51 Clear 49 9.4 21 -6.1 33 33 NE 3 6 30.01 1016 10 16 0.00 0.00
11:51 pm 23:51 Clear 47 8.3 21 -6.1 36 36 Calm 30.00 1016 10 16 0.00 0.00

Powered by AerisWeather